Tucson, AZ

6:44 PM MST on December 11, 2017 (GMT -0700)
Tucson International

Weather History for KTUS - April, 2013

Change the Weather History Date:

Friday, April 12, 2013

  Actual Average Record
Temperature  
Mean Temperature 69 °F 66 °F  
Max Temperature 82 °F 81 °F 96 °F (1988)
Min Temperature 55 °F 51 °F 34 °F (1967)
Degree Days  
Heating Degree Days 0 2  
Month to date heating degree days 15 35  
Since 1 July heating degree days 1351 1481  
Cooling Degree Days 4 3  
Month to date cooling degree days 43 30  
Year to date cooling degree days 134 63  
Growing Degree Days 18 (Base 50)    
Moisture  
Dew Point 21 °F    
Average Humidity 18    
Maximum Humidity 26    
Minimum Humidity 9    
Precipitation  
Precipitation 0.00 in 0.02 in 0.74 in (1941)
Month to date precipitation 0.12 0.18  
Year to date precipitation 1.73 2.71  
Snow  
Snow 0.00 in - - ()
Month to date snowfall 0.0  
Snow Depth 0.00 in    
Sea Level Pressure  
Sea Level Pressure 29.73 in    
Wind  
Wind Speed 7 mph (South)    
Max Wind Speed 17 mph    
Max Gust Speed 23 mph    
Visibility 10 miles    
Events      
T = Trace of Precipitation, MM = Missing Value Source: NWS Daily Summary

Daily Weather History Graph

Daily Weather History Graph

Search for Another Location

Airport or City:

Trip Planner

Search our weather history database for the weather conditions in past years. The results will help you decide how hot, cold, wet, or windy it might be!

Date:

Astronomy

Apr. 12, 2013 Rise Set
Actual Time 5:58 AM MST 6:51 PM MST
Civil Twilight 5:33 AM MST 7:16 PM MST
Nautical Twilight 5:03 AM MST 7:45 PM MST
Astronomical Twilight 4:33 AM MST 8:16 PM MST
Moon 7:17 AM MST 9:16 PM MST
Length of Visible Light 13h 43m
Length of Day
12h 53m
Waxing Crescent, 6% of the Moon is Illuminated
Apr 12
Waxing Crescent
Apr 18
First Quarter
Apr 25
Full
May 2
Last Quarter
May 9
New

Hourly Weather History & Observations

Time (MST) Temp. Dew Point Humidity Pressure Visibility Wind Dir Wind Speed Gust Speed Precip Events Conditions
12:53 AM 60.1 °F 19.9 °F 21% 29.74 in 10.0 mi SE 8.1 mph - N/A   Clear
1:53 AM 57.9 °F 19.9 °F 23% 29.73 in 10.0 mi SE 8.1 mph - N/A   Clear
2:53 AM 59.0 °F 19.9 °F 22% 29.72 in 10.0 mi SE 8.1 mph - N/A   Clear
3:53 AM 55.9 °F 19.9 °F 25% 29.72 in 10.0 mi SSE 6.9 mph - N/A   Clear
4:53 AM 57.0 °F 19.9 °F 24% 29.72 in 10.0 mi SSE 6.9 mph - N/A   Clear
5:53 AM 55.9 °F 21.0 °F 26% 29.73 in 10.0 mi SE 3.5 mph - N/A   Clear
6:53 AM 57.0 °F 21.0 °F 25% 29.75 in 10.0 mi SSE 4.6 mph - N/A   Clear
7:53 AM 61.0 °F 21.0 °F 21% 29.76 in 10.0 mi SSE 4.6 mph - N/A   Clear
8:53 AM 64.9 °F 21.9 °F 19% 29.76 in 10.0 mi ESE 5.8 mph - N/A   Clear
9:53 AM 68.0 °F 21.0 °F 17% 29.76 in 10.0 mi Calm Calm - N/A   Clear
10:53 AM 73.9 °F 19.9 °F 13% 29.75 in 10.0 mi Calm Calm - N/A   Clear
11:53 AM 77.0 °F 18.0 °F 11% 29.75 in 10.0 mi NNE 6.9 mph - N/A   Clear
12:53 PM 79.0 °F 18.0 °F 10% 29.73 in 10.0 mi NNW 10.4 mph - N/A   Clear
1:53 PM 81.0 °F 16.0 °F 9% 29.71 in 10.0 mi North 13.8 mph - N/A   Clear
2:53 PM 79.0 °F 19.0 °F 11% 29.70 in 10.0 mi NNW 15.0 mph - N/A   Clear
3:53 PM 77.0 °F 21.0 °F 12% 29.70 in 10.0 mi NW 12.7 mph - N/A   Clear
4:53 PM 77.0 °F 21.0 °F 12% 29.70 in 10.0 mi NW 11.5 mph - N/A   Clear
5:53 PM 77.0 °F 21.9 °F 13% 29.70 in 10.0 mi NNW 10.4 mph - N/A   Clear
6:53 PM 75.0 °F 23.0 °F 14% 29.70 in 10.0 mi NW 4.6 mph - N/A   Clear
7:53 PM 72.0 °F 25.0 °F 17% 29.72 in 10.0 mi Calm Calm - N/A   Clear
8:53 PM 69.1 °F 25.0 °F 19% 29.75 in 10.0 mi WNW 5.8 mph - N/A   Clear
9:53 PM 66.0 °F 28.0 °F 24% 29.77 in 10.0 mi WSW 4.6 mph - N/A   Clear
10:53 PM 64.9 °F 26.1 °F 23% 29.77 in 10.0 mi WSW 4.6 mph - N/A   Clear
11:53 PM 61.0 °F 24.1 °F 24% 29.77 in 10.0 mi SSE 6.9 mph - N/A   Clear